• In Lithuania
  • List of Countries
  • For 7 days
  • Water Temperature
  • Satellite Maps
  • Weather Map
  • Weather Widgets
  • user-avatar
    Login

    Hourly Weather Lankaran

    Today, 24 November, Friday

    Time Temperature Precipitation Wind Pressure Humidity
    00:00 -1°C° 0.1 mm 3 mps 630 mmHg 57%
    01:00 -1°C° 0.1 mm 3 mps 630 mmHg 58%
    02:00 -1°C° 0.1 mm 3 mps 630 mmHg 58%
    03:00 -3°C° 0 mm 4 mps 630 mmHg 54%
    04:00 -3°C° 0 mm 4 mps 630 mmHg 55%
    05:00 -3°C° 0 mm 4 mps 630 mmHg 56%
    06:00 -3°C° 0 mm 4 mps 630 mmHg 57%
    07:00 -3°C° 0 mm 4 mps 631 mmHg 54%
    08:00 -2°C° 0 mm 4 mps 631 mmHg 52%
    09:00 -2°C° 0 mm 4 mps 632 mmHg 49%
    10:00 -1°C° 0 mm 4 mps 632 mmHg 48%
    11:00 -1°C° 0 mm 4 mps 632 mmHg 46%
    12:00 0°C° 0 mm 4 mps 631 mmHg 45%
    13:00 -1°C° 0.1 mm 4 mps 631 mmHg 46%
    14:00 -1°C° 0.1 mm 4 mps 631 mmHg 48%
    15:00 -1°C° 0.1 mm 4 mps 631 mmHg 50%
    16:00 -1°C° 0.3 mm 3 mps 631 mmHg 56%
    17:00 -2°C° 0.3 mm 3 mps 632 mmHg 63%
    18:00 -4°C° 0.3 mm 3 mps 632 mmHg 69%
    19:00 -4°C° 0.1 mm 3 mps 632 mmHg 69%
    20:00 -4°C° 0.1 mm 3 mps 632 mmHg 69%
    21:00 -4°C° 0.1 mm 3 mps 632 mmHg 69%
    22:00 -5°C° 0 mm 3 mps 633 mmHg 67%
    23:00 -5°C° 0 mm 3 mps 633 mmHg 65%

    Tomorrow, 25 November, Saturday

    Time Temperature Precipitation Wind Pressure Humidity
    00:00 -5°C° 0 mm 3 mps 633 mmHg 63%
    01:00 -5°C° 0 mm 3 mps 633 mmHg 61%
    02:00 -6°C° 0 mm 3 mps 633 mmHg 60%
    03:00 -6°C° 0 mm 3 mps 633 mmHg 59%
    04:00 -6°C° 0 mm 3 mps 633 mmHg 59%
    05:00 -7°C° 0 mm 4 mps 633 mmHg 58%
    06:00 -7°C° 0 mm 4 mps 634 mmHg 58%
    07:00 -5°C° 0 mm 4 mps 635 mmHg 54%
    08:00 -4°C° 0 mm 5 mps 635 mmHg 51%
    09:00 -2°C° 0 mm 5 mps 636 mmHg 47%
    10:00 -2°C° 0 mm 5 mps 636 mmHg 44%
    11:00 -1°C° 0 mm 5 mps 637 mmHg 41%
    12:00 0°C° 0 mm 5 mps 637 mmHg 38%
    13:00 -1°C° 0 mm 5 mps 637 mmHg 39%
    14:00 -1°C° 0 mm 5 mps 637 mmHg 40%
    15:00 -1°C° 0 mm 4 mps 638 mmHg 41%
    16:00 -2°C° 0 mm 4 mps 638 mmHg 47%
    17:00 -4°C° 0 mm 4 mps 638 mmHg 52%
    18:00 -5°C° 0 mm 3 mps 638 mmHg 58%
    19:00 -6°C° 0 mm 3 mps 638 mmHg 59%
    20:00 -5°C° 0 mm 2 mps 639 mmHg 59%
    21:00 -5°C° 0 mm 2 mps 639 mmHg 60%
    22:00 -5°C° 0 mm 2 mps 639 mmHg 62%
    23:00 -6°C° 0 mm 2 mps 639 mmHg 65%

    Day after tomorrow, 26 November, Sunday

    Time Temperature Precipitation Wind Pressure Humidity
    00:00 -6°C° 0 mm 2 mps 638 mmHg 67%
    01:00 -6°C° 0 mm 2 mps 638 mmHg 66%
    02:00 -6°C° 0 mm 2 mps 638 mmHg 64%
    03:00 -6°C° 0 mm 2 mps 638 mmHg 62%
    04:00 -6°C° 0 mm 2 mps 638 mmHg 60%
    05:00 -6°C° 0 mm 2 mps 637 mmHg 58%
    06:00 -6°C° 0 mm 2 mps 637 mmHg 56%
    07:00 -4°C° 0 mm 2 mps 638 mmHg 52%
    08:00 -2°C° 0 mm 2 mps 638 mmHg 48%
    09:00 -1°C° 0 mm 2 mps 639 mmHg 44%
    10:00 +2°C° 0 mm 2 mps 638 mmHg 42%
    11:00 +3°C° 0 mm 2 mps 638 mmHg 40%
    12:00 +3°C° 0 mm 3 mps 638 mmHg 39%
    13:00 +3°C° 0 mm 3 mps 637 mmHg 41%
    14:00 +3°C° 0 mm 3 mps 637 mmHg 44%
    15:00 +2°C° 0 mm 3 mps 636 mmHg 47%
    16:00 +2°C° 0 mm 2 mps 636 mmHg 54%
    17:00 +1°C° 0 mm 2 mps 636 mmHg 60%
    18:00 -2°C° 0 mm 2 mps 636 mmHg 67%
    19:00 -2°C° 0 mm 2 mps 635 mmHg 63%
    20:00 -2°C° 0 mm 2 mps 635 mmHg 60%
    21:00 -2°C° 0 mm 2 mps 635 mmHg 57%
    22:00 -2°C° 0 mm 2 mps 635 mmHg 54%
    23:00 -2°C° 0 mm 2 mps 635 mmHg 51%

    27 November, Monday

    Time Temperature Precipitation Wind Pressure Humidity
    00:00 -2°C° 0 mm 2 mps 634 mmHg 47%
    01:00 -2°C° 0 mm 2 mps 634 mmHg 46%
    02:00 -2°C° 0 mm 3 mps 634 mmHg 45%
    03:00 -2°C° 0 mm 3 mps 634 mmHg 44%
    04:00 -2°C° 0 mm 3 mps 634 mmHg 45%
    05:00 -2°C° 0 mm 3 mps 634 mmHg 46%
    06:00 -2°C° 0 mm 3 mps 634 mmHg 46%
    07:00 0°C° 0 mm 3 mps 634 mmHg 43%
    08:00 +1°C° 0 mm 3 mps 635 mmHg 40%
    09:00 +3°C° 0 mm 3 mps 636 mmHg 37%
    10:00 +4°C° 0 mm 3 mps 636 mmHg 36%
    11:00 +5°C° 0 mm 3 mps 635 mmHg 36%
    12:00 +7°C° 0 mm 3 mps 635 mmHg 36%
    13:00 +5°C° 0 mm 3 mps 635 mmHg 38%
    14:00 +5°C° 0 mm 3 mps 635 mmHg 41%
    15:00 +5°C° 0 mm 3 mps 634 mmHg 43%
    16:00 +4°C° 0 mm 2 mps 634 mmHg 50%
    17:00 +3°C° 0 mm 2 mps 634 mmHg 56%
    18:00 +2°C° 0 mm 1 mps 633 mmHg 62%
    19:00 +2°C° 0 mm 1 mps 633 mmHg 63%
    20:00 +2°C° 0 mm 1 mps 633 mmHg 63%
    21:00 +2°C° 0 mm 1 mps 633 mmHg 64%
    22:00 -1°C° 0 mm 2 mps 633 mmHg 64%
    23:00 -1°C° 0 mm 2 mps 633 mmHg 64%

    28 November, Tuesday

    Time Temperature Precipitation Wind Pressure Humidity
    00:00 -1°C° 0 mm 2 mps 633 mmHg 64%
    01:00 -1°C° 0 mm 2 mps 633 mmHg 65%
    02:00 -1°C° 0 mm 2 mps 633 mmHg 66%
    03:00 -2°C° 0 mm 2 mps 633 mmHg 68%
    04:00 -2°C° 0 mm 2 mps 633 mmHg 71%
    05:00 -2°C° 0 mm 2 mps 633 mmHg 74%
    06:00 -2°C° 0 mm 2 mps 633 mmHg 77%
    07:00 +1°C° 0.1 mm 2 mps 634 mmHg 73%
    08:00 +2°C° 0.1 mm 2 mps 634 mmHg 70%
    09:00 +2°C° 0.1 mm 3 mps 635 mmHg 66%
    10:00 +3°C° 0.1 mm 3 mps 635 mmHg 65%
    11:00 +4°C° 0.1 mm 3 mps 635 mmHg 64%
    12:00 +4°C° 0.1 mm 3 mps 635 mmHg 64%
    13:00 +4°C° 0.1 mm 3 mps 635 mmHg 65%
    14:00 +4°C° 0.1 mm 3 mps 635 mmHg 67%
    15:00 +4°C° 0.1 mm 3 mps 634 mmHg 69%
    16:00 +3°C° 0.1 mm 3 mps 634 mmHg 73%
    17:00 +3°C° 0.1 mm 2 mps 634 mmHg 78%
    18:00 +3°C° 0.1 mm 2 mps 634 mmHg 83%
    19:00 +2°C° 0.1 mm 2 mps 634 mmHg 83%
    20:00 +2°C° 0.1 mm 2 mps 635 mmHg 84%
    21:00 +2°C° 0.1 mm 2 mps 635 mmHg 84%
    22:00 +2°C° 0.1 mm 2 mps 634 mmHg 84%
    23:00 +2°C° 0.1 mm 2 mps 634 mmHg 84%

    29 November, Wednesday

    Time Temperature Precipitation Wind Pressure Humidity
    00:00 +2°C° 0.1 mm 2 mps 634 mmHg 83%
    01:00 +2°C° 0 mm 1 mps 634 mmHg 81%
    02:00 +2°C° 0 mm 1 mps 634 mmHg 79%
    03:00 +2°C° 0 mm 1 mps 634 mmHg 77%
    04:00 +1°C° 0 mm 2 mps 634 mmHg 77%
    05:00 +1°C° 0 mm 2 mps 634 mmHg 76%
    06:00 +1°C° 0 mm 2 mps 634 mmHg 76%
    07:00 +2°C° 0 mm 2 mps 634 mmHg 70%
    08:00 +3°C° 0 mm 3 mps 635 mmHg 63%
    09:00 +4°C° 0 mm 3 mps 635 mmHg 57%
    10:00 +5°C° 0 mm 3 mps 635 mmHg 54%
    11:00 +7°C° 0 mm 3 mps 635 mmHg 51%
    12:00 +8°C° 0 mm 3 mps 635 mmHg 49%
    13:00 +8°C° 0 mm 3 mps 635 mmHg 51%
    14:00 +8°C° 0 mm 3 mps 634 mmHg 53%
    15:00 +8°C° 0 mm 3 mps 634 mmHg 56%
    16:00 +5°C° 0 mm 3 mps 634 mmHg 62%
    17:00 +5°C° 0 mm 2 mps 634 mmHg 68%
    18:00 +4°C° 0 mm 2 mps 633 mmHg 75%
    19:00 +4°C° 0 mm 2 mps 633 mmHg 73%
    20:00 +4°C° 0 mm 2 mps 633 mmHg 72%
    21:00 +4°C° 0 mm 2 mps 633 mmHg 71%
    22:00 +4°C° 0 mm 2 mps 633 mmHg 69%
    23:00 +3°C° 0 mm 2 mps 633 mmHg 68%
    Show more